クリステンセン彗星

P/2006 S4 ( Christensen )

English version
Home page
Total 6,336 html files since Dec. 4, 1995
Updated on April 21, 2007

---------------------------------------------------------------------

・ プロフィール

発見日 2006年9月22日
発見光度 16.8等
発見者 E. J. Christensen (Catalina Sky Survey)

・ 軌道要素

The following orbital elements are taken from MPC 57948:

Epoch 2006 May 25.0 TT = JDT 2453880.5
T 2006 June 1.6951 TT                                   MPC
q   3.068292             (2000.0)            P               Q
n   0.0632917      Peri.  305.7240      +0.8402615      +0.3904836
a   6.235981       Node    36.1357      +0.0585928      +0.6242956
e   0.507970       Incl.   39.6320      -0.5390061      +0.6765926
P  15.6
From 129 observations 2006 Sept. 22-Oct. 28, mean residual 0".7.

・ 星図

・ 光度変化

        m1 = 10.5 + 5 logΔ + 10.0 log r

---------------------------------------------------------------------

軌道要素はMPCのEphemerides and Orbital Elementsに掲載されたものです。
星図は StellaNavigator Ver.2.0 for Windows (アストロアーツ 編著 / アスキー出版局刊) で作成したものです。
光度グラフはComet for Windowsで作成したものです。

---------------------------------------------------------------------

Copyright(C) 1995-2008 Seiichi Yoshida (comet@aerith.net). All rights reserved.